Montreal Mirabel, Quebec

4:14 AM EDT on May 27, 2017 (GMT -0400)
Montreal Mirabel

Weather History for CYMX - January, 2012

Change the Weather History Date:

Saturday, January 28, 2012

  Actual Average Record
Temperature  
Mean Temperature 30 °F -  
Max Temperature 33 °F 18 °F 39 °F (2006)
Min Temperature 26 °F 2 °F -20 °F (2003)
Degree Days  
Heating Degree Days 36    
Moisture  
Dew Point 27 °F    
Average Humidity 90    
Maximum Humidity 100    
Minimum Humidity 80    
Precipitation  
Precipitation 0.00 in - - ()
Sea Level Pressure  
Sea Level Pressure 29.80 in    
Wind  
Wind Speed 6 mph ()    
Max Wind Speed 18 mph    
Max Gust Speed 31 mph    
Visibility 8.9 miles    
Events Snow    
Averages and records for this station are not official NWS values.
T = Trace of Precipitation, MM = Missing Value Source: Averaged Metar Reports

Daily Weather History Graph

Daily Weather History Graph

Search for Another Location

Airport or City:

Trip Planner

Search our weather history database for the weather conditions in past years. The results will help you decide how hot, cold, wet, or windy it might be!

Date:

Astronomy

Jan. 28, 2012 Rise Set
Actual Time 7:22 AM EST 4:55 PM EST
Civil Twilight 6:50 AM EST 5:27 PM EST
Nautical Twilight 6:14 AM EST 6:03 PM EST
Astronomical Twilight 5:39 AM EST 6:38 PM EST
Moon 9:23 AM EST (1/28) 11:03 PM EST (1/28)
Length of Visible Light 10h 37m
Length of Day
9h 33m
Waxing Crescent, 27% of the Moon is Illuminated
Jan 28
Waxing Crescent
Jan 30
First Quarter
Feb 7
Full
Feb 14
Last Quarter
Feb 21
New

Hourly Weather History & Observations

Time (EST) Temp. Windchill Dew Point Humidity Pressure Visibility Wind Dir Wind Speed Gust Speed Precip Events Conditions
12:00 AM 28.4 °F 19.1 °F 26.6 °F 93% 29.72 in 25.0 mi West 10.4 mph 19.6 mph N/A   Mostly Cloudy
1:00 AM 30.2 °F 21.9 °F 28.4 °F 93% 29.77 in 25.0 mi WSW 9.2 mph 19.6 mph N/A   Mostly Cloudy
2:00 AM 30.2 °F 22.6 °F 28.4 °F 93% 29.81 in 25.0 mi WSW 8.1 mph - N/A   Mostly Cloudy
3:00 AM 32.0 °F 24.8 °F 28.4 °F 87% 29.83 in 25.0 mi WSW 8.1 mph - N/A   Mostly Cloudy
4:00 AM 30.2 °F 23.4 °F 26.6 °F 86% 29.86 in 25.0 mi WSW 6.9 mph - N/A   Overcast
5:00 AM 30.2 °F 22.6 °F 24.8 °F 80% 29.88 in 25.0 mi WSW 8.1 mph - N/A   Overcast
6:00 AM 28.4 °F 23.3 °F 23.0 °F 80% 29.91 in 25.0 mi WSW 4.6 mph - N/A   Overcast
7:00 AM 26.6 °F 21.2 °F 23.0 °F 86% 29.92 in 25.0 mi West 4.6 mph - N/A   Mostly Cloudy
8:00 AM 26.6 °F 22.6 °F 23.0 °F 86% 29.94 in 25.0 mi West 3.5 mph - N/A   Mostly Cloudy
9:00 AM 26.6 °F 22.6 °F 23.0 °F 86% 29.95 in 25.0 mi SW 3.5 mph - N/A   Mostly Cloudy
10:00 AM 26.6 °F - 23.0 °F 86% 29.94 in 25.0 mi SSW 2.3 mph - N/A   Mostly Cloudy
11:00 AM 26.6 °F 21.2 °F 24.8 °F 93% 29.93 in 25.0 mi SW 4.6 mph - N/A   Overcast
12:00 PM 28.4 °F - 26.6 °F 93% 29.88 in 20.0 mi SSE 2.3 mph - N/A   Mostly Cloudy
1:00 PM 28.4 °F 21.2 °F 26.6 °F 93% 29.85 in 15.0 mi ESE 6.9 mph - N/A   Mostly Cloudy
2:00 PM 30.2 °F 26.7 °F 28.4 °F 93% 29.82 in 15.0 mi ENE 3.5 mph - N/A   Overcast
3:00 PM 30.2 °F 25.4 °F 28.4 °F 93% 29.77 in 10.0 mi ENE 4.6 mph - N/A   Overcast
4:00 PM 30.2 °F 25.4 °F 28.4 °F 93% 29.74 in 10.0 mi North 4.6 mph - N/A   Mostly Cloudy
5:00 PM 28.4 °F 22.2 °F 26.6 °F 93% 29.73 in 10.0 mi North 5.8 mph - N/A   Overcast
5:49 PM 28.4 °F 22.2 °F 26.6 °F 93% - 1.0 mi North 5.8 mph - N/A Snow Light Snow
6:00 PM 28.4 °F 23.3 °F 26.6 °F 93% 29.71 in 1.5 mi NNE 4.6 mph - N/A Snow Light Snow
7:00 PM 28.4 °F 23.3 °F 28.4 °F 100% 29.69 in 1.5 mi ENE 4.6 mph - N/A Snow Light Snow
8:00 PM 30.2 °F 21.3 °F 28.4 °F 93% 29.67 in 2.5 mi SSE 10.4 mph - N/A Snow Light Snow
9:00 PM 33.8 °F 25.8 °F 30.2 °F 87% 29.63 in 15.0 mi SSW 10.4 mph 18.4 mph N/A Snow Light Snow
10:00 PM 33.8 °F 22.8 °F 30.2 °F 87% 29.60 in 25.0 mi SSW 18.4 mph - N/A Snow Light Snow
11:00 PM 33.8 °F 22.8 °F 30.2 °F 87% 29.59 in 5.0 mi SW 18.4 mph 31.1 mph N/A Snow Light Snow